Satellite: FO-70
Catalog number: 37380
Epoch time:      12243.28147121
Element set:    0275
Inclination:      071.9727 deg
RA of node:       149.1032 deg
Eccentricity:    0.0018005
Arg of perigee:   184.4449 deg
Mean anomaly:     175.6549 deg
Mean motion:   14.76895720 rev/day
Decay rate:       3.50e-06 rev/day^2
Epoch rev:           04692
Checksum:              306

Satellite: ALMASAT-1
Catalog number: 38078
Epoch time:      12243.65942246
Element set:     523
Inclination:      069.4855 deg
RA of node:       148.2973 deg
Eccentricity:    0.0748264
Arg of perigee:   155.5658 deg
Mean anomaly:     208.2946 deg
Mean motion:   14.11426858 rev/day
Decay rate:     1.5010e-04 rev/day^2
Epoch rev:            2805
Checksum:              325

Satellite: XATCOBEO
Catalog number: 38082
Epoch time:      12243.70863684
Element set:     517
Inclination:      069.4832 deg
RA of node:       144.0972 deg
Eccentricity:    0.0713929
Arg of perigee:   153.2981 deg
Mean anomaly:     210.6876 deg
Mean motion:   14.21476777 rev/day
Decay rate:     3.8283e-04 rev/day^2
Epoch rev:            2816
Checksum:              331

/EX
SB KEPS @ AMSAT  $ORB12243.W
Orbital Elements  12243.WEATHER

HR AMSAT ORBITAL ELEMENTS FOR WEATHER SATELLITES
FROM WA5QGD FORT WORTH,TX August 30, 2012
Send SUBSCRIBE KEPS/UNSUBSCRIBE KEPS to majordomo at amsat.org only
BID: ORB12243.W
TO ALL RADIO AMATEURS BT

Satellite: NOAA-10
Catalog number: 16969
Epoch time:      12242.96427220
Element set:    0056
Inclination:      098.5786 deg
RA of node:       270.6915 deg
Eccentricity:    0.0012693
Arg of perigee:   022.5370 deg
Mean anomaly:     337.6366 deg
Mean motion:   14.27571973 rev/day
Decay rate:        9.0e-07 rev/day^2
Epoch rev:           35039
Checksum:              319

Satellite: NOAA-11
Catalog number: 19531
Epoch time:      12242.89767218
Element set:    0039
Inclination:      098.7301 deg
RA of node:       326.4985 deg
Eccentricity:    0.0011734
Arg of perigee:   017.1866 deg
Mean anomaly:     342.9692 deg
Mean motion:   14.14977383 rev/day
Decay rate:      -1.60e-06 rev/day^2
Epoch rev:           23493
Checksum:              323

Satellite: NOAA-12
Catalog number: 21263
Epoch time:      12242.95761300
Element set:    0547
Inclination:      098.7266 deg
RA of node:       264.2678 deg
Eccentricity:    0.0013811
Arg of perigee:   350.9987 deg
Mean anomaly:     009.0943 deg
Mean motion:   14.25514164 rev/day
Decay rate:        9.2e-07 rev/day^2
Epoch rev:           10706
Checksum:              297

Satellite: MET-3/5
Catalog number: 21655
Epoch time:      12243.44564479
Element set:     492
Inclination:      082.5530 deg
RA of node:       099.7327 deg
Eccentricity:    0.0014356
Arg of perigee:   134.7637 deg
Mean anomaly:     225.4656 deg
Mean motion:   13.17040984 rev/day
Decay rate:       -3.4e-07 rev/day^2
Epoch rev:            1166
Checksum:              307

Satellite: MET-2/21
Catalog number: 22782
Epoch time:      12242.84161029
Element set:    0514
Inclination:      082.5512 deg
RA of node:       334.0733 deg
Eccentricity:    0.0021349
Arg of perigee:   309.1126 deg
Mean anomaly:     050.8138 deg
Mean motion:   13.83688753 rev/day
Decay rate:        1.8e-07 rev/day^2
Epoch rev:           95935
Checksum:              293

Satellite: OKEAN-4
Catalog number: 23317
Epoch time:      12243.88285876
Element set:     985
Inclination:      082.5423 deg
RA of node:       321.3685 deg
Eccentricity:    0.0023192
Arg of perigee:   103.7508 deg
Mean anomaly:     256.6291 deg
Mean motion:   14.83913390 rev/day
Decay rate:       7.20e-06 rev/day^2
Epoch rev:           96588
Checksum:              326

Satellite: NOAA-14
Catalog number: 23455
Epoch time:      12242.92729012
Element set:    0025
Inclination:      098.8238 deg
RA of node:       325.4897 deg
Eccentricity:    0.0010261
Arg of perigee:   104.0917 deg
Mean anomaly:     256.1393 deg
Mean motion:   14.13867594 rev/day
Decay rate:        9.0e-08 rev/day^2
Epoch rev:           91121
Checksum:              294

Satellite: NOAA-15
Catalog number: 25338
Epoch time:      12242.77766385
Element set:    0383
Inclination:      098.6969 deg
RA of node:       229.0175 deg
Eccentricity:    0.0009638
Arg of perigee:   253.7893 deg
Mean anomaly:     106.2208 deg
Mean motion:   14.25111363 rev/day
Decay rate:       2.43e-06 rev/day^2
Epoch rev:           74333
Checksum:              322

Satellite: RESURS
Catalog number: 25394
Epoch time:      12242.95398676
Element set:    0196
Inclination:      098.3271 deg
RA of node:       227.3322 deg
Eccentricity:    0.0002310
Arg of perigee:   041.4152 deg
Mean anomaly:     318.7203 deg
Mean motion:   14.24292731 rev/day
Decay rate:       -3.0e-08 rev/day^2
Epoch rev:           73490
Checksum:              274

Satellite: FENGYUN1
Catalog number: 25730
Epoch time:      12243.81243427
Element set:     683
Inclination:      098.8505 deg
RA of node:       201.5186 deg
Eccentricity:    0.0018697
Arg of perigee:   143.9444 deg
Mean anomaly:     216.2994 deg
Mean motion:   14.09716584 rev/day
Decay rate:       3.36e-06 rev/day^2
Epoch rev:           68512
Checksum:              317

Satellite: OKEAN-0
Catalog number: 25860
Epoch time:      12243.78437126
Element set:     721
Inclination:      097.9446 deg
RA of node:       204.9369 deg
Eccentricity:    0.0001674
Arg of perigee:   045.0031 deg
Mean anomaly:     315.1314 deg
Mean motion:   14.74276027 rev/day
Decay rate:       3.35e-06 rev/day^2
Epoch rev:           70556
Checksum:              286

Satellite: NOAA-16
Catalog number: 26536
Epoch time:      12242.76352536
Element set:    0871
Inclination:      099.0891 deg
RA of node:       286.0006 deg
Eccentricity:    0.0009926
Arg of perigee:   234.1516 deg
Mean anomaly:     125.8729 deg
Mean motion:   14.12772260 rev/day
Decay rate:        3.0e-08 rev/day^2
Epoch rev:           61542
Checksum:              298

Satellite: NOAA-17
Catalog number: 27453
Epoch time:      12242.70662522
Element set:    0817
Inclination:      098.3334 deg
RA of node:       266.0189 deg
Eccentricity:    0.0010927
Arg of perigee:   304.7097 deg
Mean anomaly:     055.3035 deg
Mean motion:   14.24473753 rev/day
Decay rate:       -2.3e-07 rev/day^2
Epoch rev:           52922
Checksum:              295

Satellite: NOAA-18
Catalog number: 28654
Epoch time:      12242.77771265
Element set:    0299
Inclination:      099.0531 deg
RA of node:       201.5060 deg
Eccentricity:    0.0013708
Arg of perigee:   310.7125 deg
Mean anomaly:     049.2836 deg
Mean motion:   14.11691140 rev/day
Decay rate:       1.18e-06 rev/day^2
Epoch rev:           37494
Checksum:              293

Satellite: NOAA-19
Catalog number: 33591
Epoch time:      12242.80216274
Element set:    0488
Inclination:      098.8673 deg
RA of node:       181.6920 deg
Eccentricity:    0.0014128
Arg of perigee:   169.6514 deg
Mean anomaly:     190.4953 deg
Mean motion:   14.11378045 rev/day
Decay rate:       2.38e-06 rev/day^2
Epoch rev:           18339
Checksum:              320

/EX
SB KEPS @ AMSAT  $ORB12243.M
Orbital Elements  12243.MISC

HR AMSAT ORBITAL ELEMENTS FOR MANNED AND MISCELLANEOUS SATELLITES
FROM WA5QGD FORT WORTH,TX August 30, 2012
Send SUBSCRIBE KEPS/UNSUBSCRIBE KEPS to majordomo at amsat.org only
BID: ORB12243.M
TO ALL RADIO AMATEURS BT

Satellite: HUBBLE
Catalog number: 20580
Epoch time:      12241.12217144
Element set:      60
Inclination:      028.4704 deg
RA of node:       032.7181 deg
Eccentricity:    0.0003386
Arg of perigee:   103.9948 deg
Mean anomaly:     256.1080 deg
Mean motion:   15.02711964 rev/day
Decay rate:       6.71e-06 rev/day^2
Epoch rev:            2556
Checksum:              253

Satellite: ISS
Catalog number: 25544
Epoch time:      12243.89946671
Element set:     214
Inclination:      051.6478 deg
RA of node:       109.6447 deg
Eccentricity:    0.0015152
Arg of perigee:   018.9022 deg
Mean anomaly:     073.7037 deg
Mean motion:   15.50185791 rev/day
Decay rate:      7.592e-05 rev/day^2
Epoch rev:           78963
Checksum:              320

Satellite: CO-58
Catalog number: 28895
Epoch time:      12242.65426613
Element set:    0264
Inclination:      097.9050 deg
RA of node:       105.6624 deg
Eccentricity:    0.0016740
Arg of perigee:   282.2985 deg
Mean anomaly:     077.6334 deg
Mean motion:   14.60717163 rev/day
Decay rate:       4.23e-06 rev/day^2
Epoch rev:           36438
Checksum:              318

Satellite: FALCON
Catalog number: 30776
Epoch time:      12242.95397257
Element set:    0438
Inclination:      035.4309 deg
RA of node:       186.1133 deg
Eccentricity:    0.0002811
Arg of perigee:   311.9306 deg
Mean anomaly:     048.1209 deg
Mean motion:   15.08014938 rev/day
Decay rate:      3.191e-05 rev/day^2
Epoch rev:           30139
Checksum:              279

Satellite: MAST
Catalog number: 31126
Epoch time:      12242.98376590
Element set:    0556
Inclination:      097.8754 deg
RA of node:       249.7750 deg
Eccentricity:    0.0092649
Arg of perigee:   240.5056 deg
Mean anomaly:     118.6877 deg
Mean motion:   14.54234786 rev/day
Decay rate:       3.77e-06 rev/day^2
Epoch rev:           28499
Checksum:              353

Satellite: CAPE1
Catalog number: 31130
Epoch time:      12242.59887605
Element set:     554
Inclination:      097.8847 deg
RA of node:       245.7567 deg
Eccentricity:    0.0100027
Arg of perigee:   255.4623 deg
Mean anomaly:     103.5447 deg
Mean motion:   14.53039405 rev/day
Decay rate:       3.78e-06 rev/day^2
Epoch rev:           28443
Checksum:              304

